Weather History for Maxwell AFB, AL

Change the Weather History Date:

Friday, December 7, 2012

  Actual Average Record
Temperature  
Mean Temperature 64 °F -  
Max Temperature 69 °F 60 °F 80 °F (1998)
Min Temperature 59 °F 42 °F 26 °F (2002)
Degree Days  
Heating Degree Days 1    
Growing Degree Days 14 (Base 50)    
Moisture  
Dew Point 56 °F    
Average Humidity 78    
Maximum Humidity 88    
Minimum Humidity 64    
Precipitation  
Precipitation 0.00 in - - ()
Sea Level Pressure  
Sea Level Pressure 30.01 in    
Wind  
Wind Speed 6 mph (ESE)    
Max Wind Speed 9 mph    
Max Gust Speed -    
Visibility 10 miles    
Events      
Averages and records for this station are not official NWS values.
T = Trace of Precipitation, MM = Missing Value Source: NWS Daily Summary

Daily Weather History Graph

Daily Weather History Graph

Search for Another Location

Airport:

Trip Planner

Search our weather history database for the weather conditions in past years. The results will help you decide how hot, cold, wet, or windy it might be!

Date:

Astronomy

Dec. 07, 2012 Rise Set
Actual Time 6:34 AM CST 4:40 PM CST
Civil Twilight 6:07 AM CST 5:07 PM CST
Nautical Twilight 5:36 AM CST 5:37 PM CST
Astronomical Twilight 5:06 AM CST 6:07 PM CST
Moon 12:11 AM CST (12/7) 12:20 PM CST (12/7)
Length of Visible Light 10h 59m
Length of Day
10h 05m
Last Quarter, 38% of the Moon is Illuminated
Dec 7
Last Quarter
Dec 13
New
Dec 19
First Quarter
Dec 28
Full
Jan 4
Last Quarter

Hourly Weather History & Observations

Time (CST) Temp. Dew Point Humidity Pressure Visibility Wind Dir Wind Speed Gust Speed Precip Events Conditions
12:33 AM 59.0 °F 55.4 °F 88% 30.04 in 10.0 mi ENE 4.6 mph - N/A   Mostly Cloudy
12:45 AM 59.0 °F 55.4 °F 88% 30.04 in 10.0 mi East 5.8 mph - N/A   Mostly Cloudy
12:55 AM 59.5 °F 55.8 °F 87% 30.04 in 10.0 mi East 5.8 mph - N/A   Overcast
1:55 AM 60.8 °F 55.9 °F 84% 30.04 in 10.0 mi East 6.9 mph - N/A   Overcast
2:55 AM 61.0 °F 56.1 °F 84% 30.03 in 10.0 mi East 8.1 mph - N/A   Overcast
3:55 AM 61.0 °F 56.5 °F 85% 30.02 in 10.0 mi East 8.1 mph - N/A   Overcast
4:55 AM 60.8 °F 56.3 °F 85% 30.03 in 10.0 mi ENE 6.9 mph - N/A   Overcast
5:55 AM 60.4 °F 56.3 °F 86% 30.04 in 10.0 mi East 8.1 mph - N/A   Overcast
6:47 AM 60.8 °F 55.4 °F 82% 30.05 in 10.0 mi East 8.1 mph - N/A   Overcast
6:54 AM 59.0 °F 55.4 °F 88% 30.05 in 10.0 mi East 6.9 mph - N/A   Overcast
6:55 AM 59.7 °F 55.6 °F 86% 30.05 in 10.0 mi East 6.9 mph - N/A   Overcast
7:55 AM 59.7 °F 54.5 °F 83% 30.06 in 10.0 mi East 8.1 mph - N/A   Overcast
8:55 AM 60.1 °F 53.6 °F 79% 30.08 in 10.0 mi East 8.1 mph - N/A   Overcast
9:26 AM 60.8 °F 53.6 °F 77% 30.08 in 10.0 mi ENE 6.9 mph - N/A   Overcast
9:55 AM 61.7 °F 53.4 °F 74% 30.07 in 10.0 mi East 6.9 mph - N/A   Overcast
10:55 AM 64.6 °F 54.0 °F 68% 30.04 in 10.0 mi ESE 8.1 mph - N/A   Overcast
11:16 AM 66.2 °F 53.6 °F 64% 30.03 in 10.0 mi SE 9.2 mph - N/A   Mostly Cloudy
11:21 AM 64.4 °F 53.6 °F 68% 30.02 in 10.0 mi SE 6.9 mph - N/A   Overcast
11:40 AM 66.2 °F 53.6 °F 64% 30.01 in 10.0 mi ESE 9.2 mph - N/A   Mostly Cloudy
11:49 AM 64.4 °F 53.6 °F 68% 30.01 in 10.0 mi ESE 8.1 mph - N/A   Scattered Clouds
11:55 AM 65.5 °F 54.5 °F 68% 30.01 in 10.0 mi SE 8.1 mph - N/A   Scattered Clouds
12:55 PM 67.3 °F 55.0 °F 65% 29.98 in 10.0 mi Variable 4.6 mph - N/A   Clear
1:55 PM 68.7 °F 56.1 °F 64% 29.97 in 10.0 mi South 8.1 mph - N/A   Partly Cloudy
2:17 PM 68.0 °F 55.4 °F 64% 29.97 in 10.0 mi South 4.6 mph - N/A   Mostly Cloudy
2:46 PM 69.8 °F 57.2 °F 64% 29.96 in 10.0 mi Variable 3.5 mph - N/A   Mostly Cloudy
2:55 PM 68.4 °F 56.7 °F 66% 29.97 in 10.0 mi SSW 3.5 mph - N/A   Scattered Clouds
3:20 PM 68.0 °F 57.2 °F 68% 29.97 in 10.0 mi South 5.8 mph - N/A   Mostly Cloudy
3:51 PM 68.0 °F 57.2 °F 68% 29.97 in 10.0 mi SSW 5.8 mph - N/A   Overcast
3:55 PM 67.5 °F 57.0 °F 69% 29.96 in 10.0 mi SSW 4.6 mph - N/A   Mostly Cloudy
4:55 PM 63.9 °F 56.5 °F 77% 29.96 in 10.0 mi Calm Calm - N/A   Mostly Cloudy
5:55 PM 59.4 °F 55.2 °F 86% 29.98 in 10.0 mi SSW 3.5 mph - N/A   Mostly Cloudy
6:55 PM 63.1 °F 57.0 °F 80% 29.99 in 10.0 mi SSW 4.6 mph - N/A   Overcast
7:55 PM 61.9 °F 56.5 °F 82% 30.00 in 10.0 mi Calm Calm - N/A   Mostly Cloudy
8:55 PM 61.5 °F 56.7 °F 84% 30.00 in 10.0 mi Calm Calm - N/A   Overcast
9:36 PM 60.8 °F 57.2 °F 88% 30.01 in 10.0 mi Calm Calm - N/A   Overcast
9:55 PM 61.7 °F 56.8 °F 84% 30.01 in 10.0 mi SE 3.5 mph - N/A   Overcast
10:55 PM 61.5 °F 57.0 °F 85% 30.01 in 10.0 mi SE 3.5 mph - N/A   Overcast
11:53 PM 60.8 °F 57.2 °F 88% 29.99 in 10.0 mi SE 9.2 mph - N/A   Overcast
11:55 PM 60.6 °F 56.7 °F 87% 29.99 in 10.0 mi SE 8.1 mph - N/A   Overcast